Lone Rock, WI

8:24 PM CDT on May 25, 2017 (GMT -0500)
Tri-County Regional

Weather History for KLNR - September, 2013

Change the Weather History Date:

Sunday, September 29, 2013

  Actual Average Record
Temperature  
Mean Temperature 60 °F -  
Max Temperature 71 °F 64 °F 86 °F (2014)
Min Temperature 48 °F 43 °F 32 °F (2003)
Degree Days  
Heating Degree Days 6    
Growing Degree Days 10 (Base 50)    
Moisture  
Dew Point 49 °F    
Average Humidity 85    
Maximum Humidity 100    
Minimum Humidity 36    
Precipitation  
Precipitation 0.02 in - - ()
Sea Level Pressure  
Sea Level Pressure 30.01 in    
Wind  
Wind Speed 3 mph (WSW)    
Max Wind Speed 8 mph    
Max Gust Speed -    
Visibility 5 miles    
Events Fog    
Averages and records for this station are not official NWS values.
T = Trace of Precipitation, MM = Missing Value Source: NWS Daily Summary

Daily Weather History Graph

Daily Weather History Graph

Search for Another Location

Airport or City:

Trip Planner

Search our weather history database for the weather conditions in past years. The results will help you decide how hot, cold, wet, or windy it might be!

Date:

Astronomy

Sep. 29, 2013 Rise Set
Actual Time 6:56 AM CDT 6:44 PM CDT
Civil Twilight 6:27 AM CDT 7:13 PM CDT
Nautical Twilight 5:54 AM CDT 7:46 PM CDT
Astronomical Twilight 5:21 AM CDT 8:19 PM CDT
Moon 1:30 AM CDT (9/29) 3:47 PM CDT (9/29)
Length of Visible Light 12h 45m
Length of Day
11h 48m
Waning Crescent, 27% of the Moon is Illuminated
Sep 29
Waning Crescent
Oct 4
New
Oct 11
First Quarter
Oct 18
Full
Oct 26
Last Quarter

Hourly Weather History & Observations

Time (CDT) Temp. Dew Point Humidity Pressure Visibility Wind Dir Wind Speed Gust Speed Precip Events Conditions
12:17 AM 53.6 °F 53.6 °F 100% 30.00 in 0.5 mi West 4.6 mph - N/A Fog Fog
12:34 AM 53.6 °F 53.6 °F 100% 29.99 in 1.8 mi West 3.5 mph - N/A   Overcast
12:56 AM 53.1 °F 53.1 °F 100% 29.98 in 0.8 mi West 4.6 mph - N/A   Mist
1:30 AM 53.6 °F 51.8 °F 94% 30.01 in 0.5 mi West 5.8 mph - N/A Fog Fog
1:36 AM 51.8 °F 51.8 °F 100% 30.01 in 0.2 mi West 6.9 mph - N/A Fog Fog
1:56 AM 52.0 °F 51.1 °F 97% 29.99 in 0.2 mi West 4.6 mph - N/A Fog Fog
2:56 AM 51.1 °F 51.1 °F 100% 30.00 in 0.2 mi Calm Calm - 0.01 in Fog Fog
3:10 AM 51.8 °F 51.8 °F 100% 30.02 in 0.2 mi Calm Calm - N/A Fog Fog
3:56 AM 50.0 °F 50.0 °F 100% 30.00 in 0.2 mi Calm Calm - N/A Fog Fog
4:10 AM 50.0 °F 50.0 °F 100% 30.02 in 0.2 mi Calm Calm - N/A Fog Fog
4:56 AM 48.9 °F 48.9 °F 100% 30.01 in 0.2 mi Calm Calm - N/A Fog Fog
5:11 AM 48.2 °F 48.2 °F 100% 30.03 in 0.2 mi Calm Calm - N/A Fog Fog
5:56 AM 48.0 °F 48.0 °F 100% 30.03 in 0.2 mi Calm Calm - N/A Fog Fog
6:56 AM 48.0 °F 48.0 °F 100% 30.05 in 0.2 mi Calm Calm - N/A Fog Fog
7:56 AM 48.0 °F 46.9 °F 96% 30.06 in 0.2 mi Calm Calm - 0.01 in Fog Fog
8:56 AM 48.9 °F 48.9 °F 100% 30.06 in 0.2 mi Calm Calm - N/A Fog Fog
9:36 AM 50.0 °F 50.0 °F 100% 30.08 in 0.5 mi Calm Calm - N/A Fog Fog
9:56 AM 51.1 °F 51.1 °F 100% 30.08 in 2.0 mi Calm Calm - N/A   Overcast
10:04 AM 51.8 °F 51.8 °F 100% 30.08 in 6.0 mi Calm Calm - N/A   Mostly Cloudy
10:20 AM 53.6 °F 51.8 °F 94% 30.08 in 10.0 mi Calm Calm - N/A   Partly Cloudy
10:56 AM 57.9 °F 53.1 °F 84% 30.07 in 10.0 mi Calm Calm - N/A   Clear
11:56 AM 64.9 °F 52.0 °F 63% 30.06 in 10.0 mi SSE 5.8 mph - N/A   Clear
12:56 PM 68.0 °F 48.9 °F 50% 30.03 in 10.0 mi Variable 4.6 mph - N/A   Clear
1:56 PM 69.1 °F 44.1 °F 40% 30.01 in 10.0 mi Variable 3.5 mph - N/A   Clear
2:56 PM 70.0 °F 44.1 °F 39% 29.99 in 10.0 mi Variable 4.6 mph - N/A   Clear
3:56 PM 71.1 °F 43.0 °F 36% 29.97 in 10.0 mi South 6.9 mph - N/A   Clear
4:56 PM 71.1 °F 44.1 °F 38% 29.97 in 10.0 mi SSW 8.1 mph - N/A   Clear
5:56 PM 69.1 °F 46.9 °F 45% 29.96 in 10.0 mi SSW 5.8 mph - N/A   Clear
6:56 PM 61.0 °F 48.9 °F 64% 29.96 in 10.0 mi Calm Calm - N/A   Clear
7:56 PM 54.0 °F 48.9 °F 83% 29.98 in 10.0 mi Calm Calm - N/A   Clear
8:56 PM 53.1 °F 50.0 °F 89% 29.98 in 10.0 mi Calm Calm - N/A   Clear
9:56 PM 52.0 °F 48.9 °F 89% 29.99 in 10.0 mi Calm Calm - N/A   Clear
10:56 PM 48.9 °F 46.9 °F 93% 29.98 in 10.0 mi East 3.5 mph - N/A   Clear
11:56 PM 48.0 °F 46.0 °F 93% 29.98 in 10.0 mi Calm Calm - N/A   Clear